Stations météo

réclame
Mon MeteoGroup
La Roda de Andalucia, Espagne (8399): Température de l'air & dewpoint: 18.05.2019 05:00:00 - 24.05.2019 05:00:00 (CEST)La Roda de Andalucia, Espagne (8399): Vitesse du vent & gusts: 18.05.2019 05:00:00 - 24.05.2019 05:00:00 (CEST)La Roda de Andalucia, Espagne (8399): Direction du vent: 18.05.2019 05:00:00 - 24.05.2019 05:00:00 (CEST)La Roda de Andalucia, Espagne (8399): reduced air pressure: 18.05.2019 05:00:00 - 24.05.2019 05:00:00 (CEST)La Roda de Andalucia, Espagne (8399): visibility: 18.05.2019 05:00:00 - 24.05.2019 05:00:00 (CEST)La Roda de Andalucia, Espagne (8399): Ensoleillement: 18.05.2019 05:00:00 - 24.05.2019 05:00:00 (CEST)La Roda de Andalucia, Espagne (8399): Quantités de précipitations: 18.05.2019 05:00:00 - 24.05.2019 05:00:00 (CEST)
Date & Time tt [°C] td [°C] ff [km/h] ff [knt] fx [km/h] fx [knt] dd ppp [hPa] vv [km] sd [min] rr [mm]
24.05.2019 05:00:00 - - - - - - - - - - -
24.05.2019 04:00:00 15,6 6,1 8 4 11 6 S 1014,3 20 0 0,0
24.05.2019 03:00:00 17,8 6,1 8 4 10 5 SW 1014,4 20 0 0,0
24.05.2019 02:00:00 19,6 6,4 8 4 17 9 SSW 1014,4 20 0 -
24.05.2019 01:00:00 20,9 5,6 10 5 15 8 S 1014,4 20 0 0,0
24.05.2019 00:00:00 20,9 3,6 11 6 15 8 SSW 1014,4 20 0 0,0
23.05.2019 23:00:00 23,2 2,1 9 5 20 11 WSW 1014,1 20 0 0,0
23.05.2019 22:00:00 24,3 1,3 12 6 22 12 SSW 1013,4 20 0 0,0
23.05.2019 21:00:00 26,5 0,2 11 6 - - S 1012,7 20 19 0,0
23.05.2019 20:00:00 29,2 0,0 - - - - - 1011,9 20 59 -
23.05.2019 19:00:00 30,9 0,2 10 6 27 15 S 1011,8 20 60 0,0
23.05.2019 18:00:00 31,3 -0,5 13 7 27 15 SSE 1012,1 20 60 0,0
23.05.2019 17:00:00 31,7 0,0 12 6 28 15 SSW 1012,4 20 60 0,0
23.05.2019 16:00:00 31,5 -0,3 12 6 25 13 SSE 1013,1 20 60 0,0
23.05.2019 15:00:00 31,1 -0,5 10 5 28 15 S 1013,8 20 60 0,0
23.05.2019 14:00:00 30,0 0,6 9 5 24 13 SSE 1014,5 20 60 -
23.05.2019 13:00:00 29,0 2,3 5 3 19 10 ESE 1014,9 20 60 0,0
23.05.2019 12:00:00 27,4 3,0 6 3 16 9 S 1015,3 20 60 0,0
23.05.2019 11:00:00 25,2 4,8 6 3 13 7 SE 1015,9 20 60 0,0
23.05.2019 10:00:00 22,2 4,3 7 4 - - SSE 1016,7 20 60 0,0
23.05.2019 09:00:00 18,9 3,0 - - - - - 1016,9 20 59 0,0
23.05.2019 08:00:00 13,6 5,5 - - - - - 1017,6 20 2 -
23.05.2019 07:00:00 13,5 5,5 5 3 10 5 SSE 1017,6 20 0 0,0
23.05.2019 06:00:00 14,1 5,8 6 3 13 7 S 1017,3 20 0 0,0
23.05.2019 05:00:00 14,7 5,5 8 4 21 12 S 1017,3 20 0 0,0
23.05.2019 04:00:00 16,1 4,5 13 7 21 12 S 1017,0 20 0 0,0
23.05.2019 03:00:00 16,4 5,3 9 5 24 13 S 1017,5 20 0 0,0
23.05.2019 02:00:00 18,6 4,8 16 9 24 13 SSW 1017,3 20 0 -
23.05.2019 01:00:00 18,1 4,6 13 7 24 13 SSW 1017,2 20 0 0,0
23.05.2019 00:00:00 19,2 4,5 15 8 26 14 SSW 1016,8 20 0 0,0
22.05.2019 23:00:00 19,0 5,1 13 7 23 12 S 1016,2 20 0 0,0
22.05.2019 22:00:00 21,3 4,8 12 7 19 11 S 1015,2 20 0 0,0
22.05.2019 21:00:00 24,7 5,0 10 6 26 14 S 1014,4 20 58 0,0
22.05.2019 20:00:00 26,4 4,8 14 8 27 15 S 1013,9 20 60 -
22.05.2019 19:00:00 27,5 4,5 15 8 33 18 S 1013,6 20 60 0,0
22.05.2019 18:00:00 28,6 4,1 15 8 32 17 S 1013,6 20 60 0,0
22.05.2019 17:00:00 29,4 4,8 14 8 31 17 S 1013,4 20 60 0,0
22.05.2019 16:00:00 29,3 6,1 9 5 27 15 S 1013,6 20 58 0,0
22.05.2019 15:00:00 28,8 7,4 11 6 - - SSW 1014,0 20 60 0,0
22.05.2019 14:00:00 27,8 7,6 - - - - - 1014,5 20 60 -
22.05.2019 13:00:00 27,1 6,5 6 4 - - SSE 1014,8 20 60 0,0
22.05.2019 12:00:00 25,4 7,0 8 4 16 9 SE 1015,3 20 60 0,0
22.05.2019 11:00:00 23,4 7,0 8 4 19 10 SSE 1015,5 20 60 0,0
22.05.2019 10:00:00 20,5 10,0 12 7 25 14 S 1015,8 20 60 0,0
22.05.2019 09:00:00 17,6 11,7 13 7 25 13 S 1016,0 20 59 0,0
22.05.2019 08:00:00 14,4 10,8 9 5 18 10 S 1016,3 13 0 -
22.05.2019 07:00:00 13,6 10,0 11 6 22 12 S 1015,8 20 0 0,0
22.05.2019 06:00:00 13,8 9,3 13 7 23 12 S 1015,8 20 0 0,0
22.05.2019 05:00:00 14,3 8,7 11 6 19 11 S 1015,8 20 0 0,0
22.05.2019 04:00:00 14,3 8,5 11 6 17 9 S 1015,9 20 0 0,0
22.05.2019 03:00:00 14,5 7,3 10 5 14 8 S 1015,9 20 0 0,0
22.05.2019 02:00:00 15,2 6,7 7 4 12 6 S 1016,1 20 0 -
22.05.2019 01:00:00 17,3 6,5 7 4 - - S 1015,4 20 0 0,0
22.05.2019 00:00:00 18,3 6,8 14 8 - - WSW 1015,0 20 0 0,0
21.05.2019 23:00:00 19,5 6,5 11 6 21 11 SW 1014,5 20 0 0,0
21.05.2019 22:00:00 21,5 6,2 11 6 19 11 W 1013,5 20 0 0,0
21.05.2019 21:00:00 24,5 2,1 8 5 22 12 W 1012,3 20 58 0,0
21.05.2019 20:00:00 25,7 3,0 13 7 28 15 WNW 1011,5 20 60 -
21.05.2019 19:00:00 26,7 3,2 11 6 28 15 WNW 1011,1 20 60 0,0
21.05.2019 18:00:00 27,0 3,4 13 7 27 14 WNW 1011,2 20 60 0,0
21.05.2019 17:00:00 27,3 4,3 10 5 32 17 W 1011,2 20 55 0,0
21.05.2019 16:00:00 26,9 4,6 7 4 27 14 WNW 1011,7 20 59 0,0
21.05.2019 15:00:00 26,0 5,0 9 5 31 17 WNW 1012,0 20 60 0,0
21.05.2019 14:00:00 25,9 4,3 14 8 - - WSW 1012,4 20 60 -
21.05.2019 13:00:00 24,1 5,5 5 3 21 12 NNE 1012,9 20 60 0,0
21.05.2019 12:00:00 22,9 4,8 6 3 14 7 NNW 1013,3 20 60 0,0
21.05.2019 11:00:00 21,0 5,3 5 3 11 6 WNW 1013,8 20 60 0,0
21.05.2019 10:00:00 19,0 6,1 2 1 10 5 WNW 1014,0 20 60 0,0
21.05.2019 09:00:00 16,6 7,0 7 4 11 6 W 1014,1 20 59 0,0
21.05.2019 08:00:00 11,5 5,3 5 3 10 5 S 1014,6 20 0 -
21.05.2019 07:00:00 - - - - - - - - - - -
21.05.2019 06:00:00 10,8 3,9 6 4 10 5 S 1014,0 20 0 0,0
21.05.2019 05:00:00 12,2 4,6 4 2 11 6 WSW 1013,9 20 0 0,0
21.05.2019 04:00:00 11,6 2,9 6 3 12 6 S 1013,7 20 0 0,0
21.05.2019 03:00:00 14,2 3,0 5 3 15 8 NNE 1013,6 20 0 0,0
21.05.2019 02:00:00 16,8 2,7 4 2 29 15 WSW 1013,3 20 0 -
21.05.2019 01:00:00 17,5 2,3 9 5 22 12 SSW 1013,4 20 0 0,0
21.05.2019 00:00:00 18,4 1,9 13 7 25 14 SW 1012,9 20 0 0,0
20.05.2019 23:00:00 18,7 1,7 13 7 26 14 SW 1012,5 20 0 0,0
20.05.2019 22:00:00 20,0 0,4 10 5 20 11 WSW 1011,3 20 0 0,0
20.05.2019 21:00:00 23,0 -0,5 13 7 25 13 W 1010,4 20 59 0,0
20.05.2019 20:00:00 24,4 -1,4 16 9 29 15 WNW 1009,9 20 60 -
20.05.2019 19:00:00 25,5 -0,5 16 8 32 17 W 1010,0 20 60 0,0
20.05.2019 18:00:00 25,9 0,4 16 9 31 17 WNW 1009,7 20 60 0,0
20.05.2019 17:00:00 25,8 2,5 15 8 35 19 WNW 1009,9 20 60 0,0
20.05.2019 16:00:00 25,9 3,2 16 9 29 16 W 1010,3 20 60 0,0
20.05.2019 15:00:00 25,0 5,1 15 8 30 16 W 1010,7 20 60 0,0
20.05.2019 14:00:00 23,7 5,6 14 7 33 18 WNW 1011,2 20 60 -
20.05.2019 13:00:00 23,0 5,8 12 7 29 16 W 1011,5 20 60 0,0
20.05.2019 12:00:00 22,0 7,0 12 6 25 14 W 1011,9 20 58 0,0
20.05.2019 11:00:00 19,6 10,0 4 2 9 5 N 1012,2 20 60 0,0
20.05.2019 10:00:00 17,5 10,6 4 2 10 5 NNE 1012,6 20 57 0,0
20.05.2019 09:00:00 15,4 10,5 2 1 5 3 NNW 1012,7 20 54 0,0
20.05.2019 08:00:00 10,4 8,4 3 2 9 5 S 1013,3 20 0 -
20.05.2019 07:00:00 9,4 7,0 6 3 8 5 S 1013,1 20 0 0,0
20.05.2019 06:00:00 10,2 7,1 5 3 9 5 S 1012,7 20 0 0,0
20.05.2019 05:00:00 11,2 7,6 6 4 8 5 S 1012,7 20 0 0,0
20.05.2019 04:00:00 13,3 8,8 4 2 7 4 S 1012,6 20 0 0,0
20.05.2019 03:00:00 13,7 8,8 5 3 7 4 S 1013,1 20 0 0,0
20.05.2019 02:00:00 15,3 9,2 4 2 14 8 NE 1012,9 20 0 -
20.05.2019 01:00:00 15,5 9,4 11 6 31 17 W 1012,5 20 0 0,0
20.05.2019 00:00:00 15,8 9,7 19 10 35 19 W 1012,7 20 0 0,0
19.05.2019 23:00:00 16,8 9,4 19 11 36 20 W 1012,2 20 0 0,0
19.05.2019 22:00:00 18,1 8,9 19 11 35 19 W 1011,5 20 0 0,0
19.05.2019 21:00:00 19,6 6,4 19 10 34 18 W 1010,6 20 3 0,0
19.05.2019 20:00:00 21,2 2,9 16 9 31 17 W 1010,0 20 43 -
19.05.2019 19:00:00 22,2 -0,5 14 8 31 17 WNW 1009,9 20 48 0,0
19.05.2019 18:00:00 22,8 -0,7 11 6 36 19 WNW 1009,9 20 60 0,0
19.05.2019 17:00:00 23,2 0,2 15 8 35 19 W 1010,3 20 60 0,0
19.05.2019 16:00:00 22,0 0,4 21 11 38 20 WNW 1011,3 20 59 0,0
19.05.2019 15:00:00 22,0 1,1 15 8 32 17 W 1011,1 20 60 0,0
19.05.2019 14:00:00 20,3 0,2 10 5 29 16 WNW 1011,7 20 60 -
19.05.2019 13:00:00 19,2 1,7 16 8 30 16 WNW 1012,1 20 60 0,0
19.05.2019 12:00:00 18,3 3,0 11 6 27 15 WNW 1012,7 20 60 0,0
19.05.2019 11:00:00 16,7 3,0 13 7 23 13 W 1012,8 20 60 0,0
19.05.2019 10:00:00 15,1 3,8 12 7 29 16 W 1013,2 20 60 0,0
19.05.2019 09:00:00 13,3 3,6 16 9 25 14 WNW 1013,2 20 58 0,0
19.05.2019 08:00:00 11,1 3,4 4 2 13 7 W 1013,4 20 0 -
19.05.2019 07:00:00 11,4 2,9 7 4 19 10 WSW 1012,6 20 0 0,0
19.05.2019 06:00:00 11,4 3,2 4 2 14 8 W 1012,8 20 0 0,0
19.05.2019 05:00:00 11,3 3,0 8 4 14 8 W 1012,7 20 0 0,0
19.05.2019 04:00:00 11,4 3,9 8 4 10 6 WSW 1012,9 20 0 0,0
19.05.2019 03:00:00 12,2 4,5 4 2 13 7 W 1013,1 20 0 0,0
19.05.2019 02:00:00 12,4 4,8 9 5 13 7 WSW 1013,2 20 0 -
19.05.2019 01:00:00 13,3 5,6 9 5 19 10 W 1013,4 20 0 0,0
19.05.2019 00:00:00 14,5 5,8 12 6 21 12 W 1013,2 20 0 0,0
18.05.2019 23:00:00 15,5 5,9 12 6 22 12 W 1013,1 20 0 0,0
18.05.2019 22:00:00 16,8 5,8 13 7 29 16 W 1012,3 20 0 0,0
18.05.2019 21:00:00 18,6 3,6 19 11 35 19 W 1011,3 16 4 0,0
18.05.2019 20:00:00 20,8 -2,5 18 10 40 21 WNW 1010,1 20 60 -
18.05.2019 19:00:00 22,1 -2,7 18 10 41 22 WNW 1009,9 20 60 0,0
18.05.2019 18:00:00 22,1 -2,7 24 13 44 24 WNW 1010,0 20 60 0,0
18.05.2019 17:00:00 21,6 -3,0 24 13 45 24 WNW 1010,1 20 60 0,0
18.05.2019 16:00:00 20,6 -1,2 20 11 39 21 WNW 1010,8 20 60 0,0
18.05.2019 15:00:00 21,0 -0,3 17 9 46 25 W 1010,8 20 60 0,0
18.05.2019 14:00:00 18,7 1,3 15 8 37 20 NW 1011,4 20 59 -
18.05.2019 13:00:00 18,2 2,1 16 9 30 16 WNW 1011,8 20 58 0,0
18.05.2019 12:00:00 16,9 2,5 18 10 30 16 WNW 1011,9 20 60 0,0
18.05.2019 11:00:00 15,0 2,9 14 8 25 14 NW 1012,2 20 60 0,0
18.05.2019 10:00:00 14,2 3,4 13 7 24 13 W 1012,3 20 60 0,0
18.05.2019 09:00:00 12,4 3,4 12 7 24 13 WNW 1012,3 20 58 0,0
18.05.2019 08:00:00 10,5 3,0 - - - - - 1012,3 20 0 -
18.05.2019 07:00:00 10,3 3,0 10 6 22 12 W 1011,8 20 0 0,0
18.05.2019 06:00:00 10,6 3,8 9 5 13 7 W 1011,3 20 0 0,0
18.05.2019 05:00:00 12,0 3,9 3 1 14 8 N 1011,5 20 0 0,0

tt = Température de l'air
td = dewpoint
ff = Vitesse du vent
fx = gusts
dd = Direction du vent
ppp = reduced air pressure
vv = visibility
sd = Ensoleillement
rr = Quantités de précipitations

stations d'obs. à proximité